This is the latest recevied weather packets stored in our database for station/object K0QED. If no packets are shown the sender has not sent any weather packets the latest 10 day(s).
| Time | Temp. | Humidity | Pressure | Rain* | Wind** | Luminosity | Snow |
|---|---|---|---|---|---|---|---|
| 1787797602 | 16.11° C | 76% | 1032.6 hPa | 0 mm | - | 0 W/m² | - |
| 1787797297 | 16.11° C | 74% | 1031.9 hPa | 0 mm | - | 0 W/m² | - |
| 1787796996 | 16.67° C | 73% | 1032 hPa | 0 mm | - | 0 W/m² | - |
| 1787796691 | 16.67° C | 73% | 1031.6 hPa | 0 mm | - | 0 W/m² | - |
| 1787796382 | 16.67° C | 73% | 1031.7 hPa | 0 mm | - | 0 W/m² | - |
| 1787796077 | 16.67° C | 75% | 1031.4 hPa | 0 mm | - | 0 W/m² | - |
| 1787795774 | 16.67° C | 76% | 1031.5 hPa | 0 mm | - | 0 W/m² | - |
| 1787795469 | 16.67° C | 76% | 1031.4 hPa | 0 mm | - | 0 W/m² | - |
| 1787795168 | 16.67° C | 77% | 1031.5 hPa | 0 mm | - | 0 W/m² | - |
| 1787794867 | 17.22° C | 78% | 1031.2 hPa | 0 mm | - | 0 W/m² | - |
| 1787794563 | 17.22° C | 75% | 1031.2 hPa | 0 mm | - | 2 W/m² | - |
| 1787794258 | 17.22° C | 78% | 1030.9 hPa | 0 mm | - | 6 W/m² | - |
| 1787793953 | 17.22° C | 77% | 1030.5 hPa | 0 mm | - | 11 W/m² | - |
| 1787793650 | 17.78° C | 76% | 1030.7 hPa | 0 mm | - | 21 W/m² | - |
| 1787793345 | 17.78° C | 75% | 1031.2 hPa | 0 mm | - | 33 W/m² | - |
| 1787793039 | 17.78° C | 73% | 1031.2 hPa | 0 mm | - | 36 W/m² | - |
| 1787792734 | 18.33° C | 72% | 1031.5 hPa | 0 mm | - | 29 W/m² | - |
| 1787792433 | 18.89° C | 67% | 1031.7 hPa | 0 mm | - | 14 W/m² | - |
| 1787792131 | 18.89° C | 63% | 1031.9 hPa | 0 mm | - | 10 W/m² | - |
| 1787791830 | 18.89° C | 64% | 1031.6 hPa | 0 mm | - | 9 W/m² | - |
| 1787791525 | 18.89° C | 62% | 1031.5 hPa | 0 mm | - | 7 W/m² | - |
| 1787791220 | 19.44° C | 60% | 1031.6 hPa | 0 mm | - | 8 W/m² | - |
| 1787790916 | 19.44° C | 61% | 1031.2 hPa | 0 mm | - | 11 W/m² | - |
| 1787790611 | 19.44° C | 59% | 1031.4 hPa | 0 mm | - | 10 W/m² | - |
| 1787790311 | 19.44° C | 59% | 1031.5 hPa | 0 mm | - | 18 W/m² | - |
* Rain latest hour (hover to see other rain measurements)
** Current wind speed in m/s (hover to see current wind gust speed)